[[{"header":{"parameterUnit":"m.s-1","parameterCategory":1,"la1":30.2991,"la2":30.254,"lo1":-89.0895,"lo2":-89.0444,"dy":0.0017,"dx":0.0017,"nx":28,"ny":28,"refTime":"2024-10-21T09:00:00:Z","depth":0,"parameterNumber":2,"parameterNumberName":"U-component_of_WINDS"},"data":[0,0,0,0,0,0,0,0,0,0,0,0,0,0,0,0,0,0,0,0,0,0,0,0,0,0,0,0,0,0,0,0,0,0,0,0,0,0,0,0,0,0,0,0,0,0,0,0,0,0,0,0,0,0,0,0,0,0,-0.087,-0.087,0,-0.0794,-0.0793,-0.0792,-0.0693,-0.0692,-0.069,-0.0689,-0.0613,-0.0613,-0.0612,0,0,0,0,0,0,0,0,0,0,0,0,0,-0.0934,-0.0934,-0.0871,-0.087,-0.0869,-0.0794,-0.0793,-0.0792,-0.0694,-0.0692,-0.069,-0.0688,-0.0613,-0.0613,-0.0612,0,0,0,0,0,0,0,0,0,0,0,0,0,-0.0887,-0.0933,-0.0871,-0.081,-0.0804,-0.0794,-0.0793,-0.0792,-0.0694,-0.0692,-0.0689,-0.0687,-0.0614,-0.0613,-0.0612,-0.0656,0,0,-0.061,-0.0609,0,0,0,0,0,0,0,0,-0.089,-0.0885,-0.082,-0.0815,-0.0808,-0.0751,-0.0788,-0.0746,-0.0695,-0.0736,-0.0688,-0.0686,-0.0661,-0.0656,-0.0647,-0.0653,-0.0649,-0.061,-0.0609,-0.0609,-0.0609,0,0,0,0,0,0,0,-0.0893,-0.0888,-0.084,-0.0819,-0.0812,-0.0788,-0.0779,-0.0779,-0.0713,-0.0732,-0.0725,-0.0717,-0.0657,-0.0648,-0.0645,-0.0648,-0.061,-0.0609,-0.0609,-0.0608,-0.0688,-0.069,0,0,0,0,0,0,-0.0905,-0.0891,-0.0843,-0.0838,-0.0844,-0.0789,-0.0778,-0.0771,-0.0713,-0.0702,-0.0719,-0.0713,-0.0651,-0.0646,-0.0642,-0.0692,-0.0609,-0.0608,-0.0608,-0.0685,-0.0688,-0.0691,0,0,0,0,0,0,-0.0907,-0.0902,-0.0846,-0.0862,-0.0853,-0.079,-0.0783,-0.0771,-0.0762,-0.0703,-0.0691,-0.0722,-0.0649,-0.0643,-0.0654,-0.0688,-0.0608,-0.0607,-0.0682,-0.0686,-0.069,-0.0791,0,0,0,0,0,0,-0.0909,-0.0903,-0.0919,-0.0864,-0.0853,-0.0858,-0.0785,-0.0771,-0.0761,-0.0752,-0.0703,-0.0692,-0.0646,-0.0655,-0.0653,-0.0685,-0.0607,-0.0679,-0.0684,-0.0689,-0.0785,-0.0798,-0.081,0,0,0,0,0,-0.0912,-0.095,-0.092,-0.0915,-0.0871,-0.0861,-0.0855,-0.08,-0.0764,-0.078,-0.0742,-0.0694,-0.0684,-0.0657,-0.0654,-0.0687,-0.0677,-0.0683,-0.0688,-0.0779,-0.0796,-0.0809,0,0,0,0,0,0,-0.1012,-0.0942,-0.0908,-0.0929,-0.0901,-0.0844,-0.0862,-0.0819,-0.0802,-0.0794,-0.0728,-0.0718,-0.0738,-0.0712,-0.0684,-0.0727,-0.0673,-0.0679,-0.0744,-0.0759,-0.0771,-0.0778,-0.0606,0,0,0,0,0,-0.1036,-0.1033,-0.0972,-0.0997,-0.0985,-0.0926,-0.0919,-0.088,-0.0849,-0.0837,-0.08,-0.0773,-0.0763,-0.0759,-0.0747,-0.0779,-0.0769,-0.08,-0.0813,-0.0823,-0.083,-0.0848,-0.0862,-0.071,-0.071,-0.071,0,0,-0.1088,-0.1049,-0.1051,-0.1016,-0.099,-0.099,-0.0917,-0.0919,-0.0918,-0.0837,-0.0846,-0.0818,-0.0783,-0.0806,-0.0814,-0.0785,-0.0869,-0.083,-0.0839,-0.084,-0.0855,-0.087,-0.0883,-0.0714,-0.0713,-0.0713,0,0,-0.1181,-0.115,-0.1169,-0.1144,-0.1105,-0.1065,-0.107,-0.1018,-0.0997,-0.1003,-0.0944,-0.0942,-0.0926,-0.0905,-0.0892,-0.0977,-0.0934,-0.0975,-0.1042,-0.106,-0.1072,-0.1083,-0.1117,-0.1129,-0.0981,-0.0981,-0.0981,0,-0.125,-0.1246,-0.1184,-0.119,-0.1178,-0.1103,-0.1123,-0.1101,-0.1061,-0.1055,-0.1023,-0.1003,-0.0974,-0.0993,-0.1013,-0.1004,-0.1009,-0.0982,-0.1075,-0.1085,-0.1094,-0.1125,-0.1138,-0.0987,-0.0986,-0.0985,-0.0985,0,-0.1334,-0.1332,-0.1352,-0.1315,-0.1304,-0.1317,-0.1258,-0.1255,-0.1216,-0.118,-0.1189,-0.1151,-0.1132,-0.1132,-0.1094,-0.1145,-0.1129,-0.1087,-0.1032,-0.1115,-0.1144,-0.1155,-0.0995,-0.0993,-0.0991,-0.0989,0,0,-0.1492,-0.1419,-0.1428,-0.1411,-0.1362,-0.136,-0.1369,-0.1349,-0.1349,-0.1323,-0.1332,-0.132,-0.1281,-0.1267,-0.1225,-0.1241,-0.1315,-0.1197,-0.1195,-0.1224,-0.1373,-0.1408,-0.1423,-0.1284,-0.1286,-0.1287,-0.1377,0,-0.1579,-0.1592,-0.1536,-0.1564,-0.1563,-0.1491,-0.15,-0.1472,-0.1438,-0.1433,-0.1396,-0.1391,-0.1337,-0.1329,-0.134,-0.1304,-0.1345,-0.1295,-0.1294,-0.1295,-0.131,-0.1437,-0.1474,-0.1561,-0.1388,-0.1389,-0.1391,0,-0.1683,-0.1663,-0.1691,-0.1642,-0.1639,-0.1648,-0.1626,-0.1621,-0.1588,-0.1563,-0.1546,-0.1498,-0.1506,-0.1451,-0.1462,-0.143,-0.1425,-0.1407,-0.1409,-0.141,-0.1351,-0.1446,-0.1587,-0.1602,-0.1407,-0.1406,-0.1405,0,-0.1801,-0.178,-0.1794,-0.1781,-0.1723,-0.1732,-0.1708,-0.1672,-0.1664,-0.1644,-0.1639,-0.1621,-0.1612,-0.1599,-0.1548,-0.1512,-0.1567,-0.1506,-0.1549,-0.1551,-0.1567,-0.1568,-0.1714,-0.1557,-0.1557,-0.1557,-0.1557,0,-0.1907,-0.1928,-0.1846,-0.1856,-0.1878,-0.1813,-0.1837,-0.1806,-0.1775,-0.1778,-0.1713,-0.1718,-0.1648,-0.1646,-0.1605,-0.1623,-0.1618,-0.16,-0.159,-0.1608,-0.1611,-0.1608,-0.1602,-0.156,-0.156,-0.1559,-0.1558,0,-0.2043,-0.1989,-0.2001,-0.1944,-0.1931,-0.195,-0.1902,-0.1909,-0.1871,-0.1876,-0.1874,-0.1814,-0.1808,-0.1754,-0.1736,-0.1709,-0.1743,-0.1719,-0.1755,-0.1749,-0.1796,-0.1794,-0.1949,-0.1967,-0.1795,-0.1797,-0.1798,0,-0.2117,-0.2131,-0.2076,-0.2073,-0.2052,-0.2049,-0.204,-0.1976,-0.197,-0.1934,-0.1946,-0.1934,-0.1922,-0.1916,-0.1872,-0.1858,-0.1836,-0.1891,-0.1834,-0.1853,-0.1842,-0.1844,-0.1846,-0.1905,-0.1907,-0.1909,-0.191,0,-0.2254,-0.2226,-0.2216,-0.2196,-0.2188,-0.2169,-0.2147,-0.2149,-0.2079,-0.2076,-0.2068,-0.2058,-0.2039,-0.203,-0.2008,-0.1985,-0.1938,-0.1928,-0.1938,-0.1959,-0.1981,-0.1974,-0.1793,-0.1926,-0.1924,-0.1923,-0.1922,-0.1922,-0.2364,-0.2374,-0.2338,-0.2328,-0.2305,-0.2285,-0.229,-0.2252,-0.2244,-0.2224,-0.2186,-0.2186,-0.2153,-0.2119,-0.2099,-0.2098,-0.207,-0.2083,-0.2087,-0.2093,-0.2104,-0.1977,-0.2094,-0.2093,-0.2093,-0.2092,-0.2092,0,-0.2502,-0.2474,-0.2466,-0.2437,-0.243,-0.2383,-0.2356,-0.2354,-0.2354,-0.2326,-0.2315,-0.2308,-0.2298,-0.2253,-0.2238,-0.2247,-0.2225,-0.2246,-0.2247,-0.2243,-0.2128,-0.2123,-0.2264,-0.2264,-0.2264,-0.2264,-0.2264,-0.2264,-0.2573,-0.2589,-0.2557,-0.2561,-0.2533,-0.2531,-0.252,-0.2503,-0.2481,-0.2476,-0.2467,-0.2437,-0.2403,-0.2386,-0.2375,-0.2362,-0.2362,-0.2391,-0.2372,-0.2267,-0.225,-0.2235,-0.223,-0.239,-0.239,-0.2486,-0.2487,-0.2488]},{"header":{"parameterUnit":"m.s-1","parameterCategory":1,"la1":30.2991,"la2":30.254,"lo1":-89.0895,"lo2":-89.0444,"dy":0.0017,"dx":0.0017,"nx":28,"ny":28,"refTime":"2024-10-21T09:00:00:Z","depth":0,"parameterNumber":3,"parameterNumberName":"V-component_of_WINDS"},"data":[0,0,0,0,0,0,0,0,0,0,0,0,0,0,0,0,0,0,0,0,0,0,0,0,0,0,0,0,0,0,0,0,0,0,0,0,0,0,0,0,0,0,0,0,0,0,0,0,0,0,0,0,0,0,0,0,0,0,0.8125,0.8125,0,0.805,0.8049,0.8048,0.8016,0.8017,0.8017,0.8017,0.7935,0.7932,0.793,0,0,0,0,0,0,0,0,0,0,0,0,0,0.8238,0.8236,0.8125,0.8125,0.8124,0.805,0.8049,0.8048,0.8016,0.8017,0.8017,0.8017,0.7935,0.7933,0.793,0,0,0,0,0,0,0,0,0,0,0,0,0,0.8178,0.8235,0.8126,0.8099,0.8096,0.805,0.8049,0.8048,0.8016,0.8017,0.8017,0.8017,0.7936,0.7933,0.793,0.7903,0,0,0.7919,0.7917,0,0,0,0,0,0,0,0,0.8181,0.8174,0.8104,0.8101,0.8097,0.8043,0.8058,0.7999,0.8016,0.8046,0.8017,0.8017,0.797,0.7964,0.7949,0.7899,0.7896,0.7919,0.7916,0.7915,0.7914,0,0,0,0,0,0,0,0.8186,0.8177,0.8095,0.8103,0.8099,0.8089,0.8081,0.8047,0.8008,0.8044,0.8041,0.8033,0.7968,0.7953,0.7947,0.7895,0.7919,0.7915,0.7913,0.7912,0.7818,0.7818,0,0,0,0,0,0,0.8195,0.8181,0.8098,0.8093,0.8141,0.8087,0.8078,0.806,0.8008,0.8,0.8033,0.8032,0.7958,0.7951,0.7944,0.7909,0.7915,0.7912,0.791,0.7819,0.7818,0.7818,0,0,0,0,0,0,0.8197,0.8188,0.8101,0.8136,0.8124,0.8085,0.8065,0.8058,0.8043,0.8,0.7992,0.8024,0.7958,0.7949,0.7914,0.7906,0.791,0.7907,0.7819,0.7818,0.7818,0.7839,0,0,0,0,0,0,0.8201,0.8189,0.818,0.8136,0.8123,0.8073,0.8065,0.8057,0.8037,0.8035,0.799,0.7982,0.7958,0.7919,0.791,0.7901,0.7904,0.7819,0.7819,0.7818,0.7839,0.7839,0.784,0,0,0,0,0,0.8205,0.8188,0.8179,0.8169,0.8111,0.8073,0.8065,0.8038,0.8037,0.8026,0.7999,0.7984,0.7908,0.7916,0.7905,0.7895,0.782,0.7819,0.7818,0.7839,0.7839,0.784,0,0,0,0,0,0,0.823,0.8182,0.8172,0.8141,0.8111,0.8068,0.8054,0.804,0.8009,0.8008,0.7975,0.7965,0.7932,0.791,0.7919,0.7866,0.7863,0.786,0.7882,0.7882,0.7883,0.7888,0.7901,0,0,0,0,0,0.8232,0.8207,0.8166,0.8142,0.8128,0.8094,0.8076,0.8058,0.8026,0.8013,0.7983,0.7951,0.792,0.79,0.7869,0.7836,0.7825,0.7823,0.7824,0.7824,0.7822,0.7802,0.78,0.7815,0.7815,0.7815,0,0,0.8235,0.8206,0.8192,0.8146,0.8121,0.8095,0.8083,0.8056,0.8035,0.8008,0.7973,0.795,0.7912,0.7878,0.7861,0.7858,0.7816,0.7823,0.7824,0.7821,0.7801,0.7799,0.7798,0.7814,0.7814,0.7814,0,0,0.8228,0.8204,0.8181,0.8157,0.812,0.8098,0.8092,0.8051,0.8035,0.8,0.7979,0.7953,0.79,0.7874,0.7853,0.7836,0.7821,0.7827,0.7828,0.7809,0.7808,0.7807,0.7799,0.7797,0.7825,0.7825,0.7825,0,0.8237,0.8197,0.8171,0.8145,0.8125,0.8101,0.8077,0.8054,0.8008,0.7994,0.7992,0.7925,0.7897,0.7856,0.7852,0.7837,0.7828,0.7831,0.7811,0.7809,0.7807,0.78,0.7797,0.7825,0.7825,0.7825,0.7825,0,0.8209,0.8182,0.8168,0.8126,0.8104,0.8079,0.8048,0.8028,0.8012,0.7989,0.7953,0.792,0.7881,0.787,0.7854,0.7826,0.7825,0.7817,0.7813,0.7807,0.78,0.7797,0.7827,0.7826,0.7826,0.7826,0,0,0.8215,0.816,0.8155,0.8135,0.8093,0.807,0.8043,0.8007,0.7991,0.796,0.7936,0.7892,0.7884,0.7861,0.7841,0.7824,0.7811,0.7818,0.7816,0.7817,0.7777,0.7783,0.7781,0.7801,0.7801,0.78,0.778,0,0.8202,0.8154,0.813,0.8092,0.8066,0.8043,0.8019,0.7989,0.7967,0.794,0.7915,0.7884,0.7877,0.7863,0.7845,0.7817,0.7803,0.7818,0.7776,0.7775,0.7786,0.7777,0.7783,0.7766,0.7777,0.7777,0.7776,0,0.818,0.815,0.8111,0.8071,0.8059,0.8038,0.8003,0.7978,0.7943,0.7928,0.7903,0.7883,0.7852,0.7851,0.7807,0.7818,0.7799,0.7783,0.7781,0.7776,0.7775,0.777,0.776,0.7757,0.7772,0.7772,0.7772,0,0.8187,0.8138,0.8107,0.8091,0.8044,0.803,0.8009,0.7975,0.7955,0.7923,0.7909,0.7874,0.7855,0.7827,0.7798,0.78,0.7756,0.7753,0.7741,0.7742,0.7732,0.7733,0.7718,0.7722,0.7722,0.7722,0.7722,0,0.8174,0.815,0.811,0.8091,0.8063,0.8035,0.8007,0.7985,0.7954,0.793,0.7907,0.7884,0.7847,0.7819,0.7796,0.7762,0.7754,0.7739,0.7733,0.7741,0.7742,0.7727,0.7727,0.7721,0.7722,0.7722,0.7722,0,0.8177,0.8149,0.8115,0.8073,0.8062,0.8043,0.8007,0.7987,0.7964,0.7932,0.7923,0.7886,0.7852,0.782,0.7774,0.7758,0.7724,0.7717,0.7736,0.7732,0.7722,0.7723,0.7696,0.769,0.77,0.77,0.77,0,0.817,0.8152,0.8109,0.8091,0.8071,0.8043,0.8023,0.7993,0.7972,0.7931,0.7916,0.788,0.785,0.7795,0.7763,0.7727,0.7718,0.7711,0.7713,0.7721,0.7717,0.7718,0.7715,0.7711,0.7711,0.7711,0.7712,0,0.8161,0.8148,0.812,0.8087,0.8063,0.8035,0.8007,0.7993,0.7958,0.7935,0.7901,0.7877,0.7831,0.7795,0.7755,0.7732,0.7715,0.7712,0.7707,0.7714,0.7725,0.7718,0.7736,0.7712,0.7712,0.7712,0.7712,0.7712,0.8158,0.814,0.8107,0.8076,0.8052,0.8025,0.8004,0.7979,0.795,0.791,0.7894,0.7859,0.7823,0.7769,0.7746,0.7716,0.7713,0.7706,0.7704,0.7703,0.7704,0.7731,0.7709,0.7709,0.7709,0.7709,0.7709,0,0.8146,0.8124,0.8096,0.8057,0.8032,0.8021,0.7988,0.7968,0.7937,0.7907,0.7878,0.7837,0.7802,0.7767,0.773,0.7713,0.7704,0.7704,0.7704,0.7698,0.7709,0.7717,0.7711,0.7711,0.7711,0.7711,0.7711,0.7711,0.8137,0.8106,0.8089,0.8045,0.8022,0.7988,0.7971,0.7945,0.7921,0.7877,0.7848,0.7826,0.7793,0.7753,0.772,0.7711,0.7697,0.7699,0.7687,0.7698,0.7698,0.7698,0.7705,0.7697,0.7697,0.7678,0.7678,0.7678]}]]